Regional Weather Roundup
Issued by NWS

Home | Current Version | Previous Version | Text Only | Print | Product List | Glossary Off
Versions: 1 2 3 4 5 6 7 8 9 10 11 12 13 14 15 16 17 18 19 20 21 22 23 24 25 26 27 28 29 30 31 32 33 34 35 36 37 38 39 40 41 42 43 44 45 46 47 48 49 50

112
ASUS45 KTFX 251510
RWRMT
MONTANA REGIONAL WEATHER ROUNDUP
NATIONAL WEATHER SERVICE GREAT FALLS MT
900 AM MDT SUN JUN 25 2017

NOTE: "FAIR" INDICATES FEW OR NO CLOUDS BELOW 12000 FEET WITH NO
SIGNIFICANT WEATHER AND/OR OBSTRUCTIONS TO VISIBILITY.

MTZ001>007-043-251600-
WEST OF THE DIVIDE

CITY           SKY/WX    TMP DP  RH WIND       PRES   REMARKS
KALISPELL      SUNNY     64  48  56 NE9       30.24S
MISSOULA       SUNNY     61  45  55 CALM      30.28S
BUTTE          SUNNY     59  38  45 N3        30.37F
MULLAN PASS    SUNNY     59  35  40 SE9G17    30.33S
ANACONDA         N/A     63  37  39 S7        30.34F
DEER LODGE       N/A     57  41  54 CALM      30.37S
EUREKA           N/A     63  45  51 MISG      30.25S
HAMILTON         N/A     63  43  48 CALM      30.29S
$$

MTZ008-052>055-251600-
SOUTHWEST MONTANA

CITY           SKY/WX    TMP DP  RH WIND       PRES   REMARKS
BOZEMAN        SUNNY     60  39  45 VRB5      30.36S
DILLON         SUNNY     57  40  52 CALM      30.36S
W YELLOWSTONE  SUNNY     52  36  54 CALM      30.43F
ENNIS          SUNNY     59  39  47 CALM      30.42F
THREE FORKS      N/A     60  41  49 CALM      30.31S
$$

MTZ009-010-012-014-046-048-049-054-251600-
EAST SLOPES AND CENTRAL MONTANA

CITY           SKY/WX    TMP DP  RH WIND       PRES   REMARKS
CUT BANK       SUNNY     58  43  57 SE7       30.31S
GREAT FALLS    SUNNY     62  42  47 CALM      30.31F
MALMSTROM AFB  SUNNY     60  43  52 CALM      30.31F
HELENA         SUNNY     61  43  51 N3        30.33S
CHOTEAU          N/A     61  45  55 CALM      30.32F
$$

MTZ011-013-016-021-045-047-050-051-251600-
NORTH CENTRAL MONTANA

CITY           SKY/WX    TMP DP  RH WIND       PRES   REMARKS
HAVRE          SUNNY     61  42  49 CALM      30.30S
LEWISTOWN      SUNNY     61  41  47 E5        30.34S
N BAR RANCH      N/A     63  37  39 CALM      30.38S
CHINOOK          N/A     61  43  51 CALM      30.30F
FORT BENTON      N/A     64  45  48 MISG      30.33S
$$

MTZ017>020-022>027-061-062-251600-
NORTHEAST MONTANA

CITY           SKY/WX    TMP DP  RH WIND       PRES   REMARKS
GLASGOW        SUNNY     64  39  39 CALM      30.28R
JORDAN           N/A     69  35  28 W6        30.29R
SIDNEY         CLOUDY    59  39  47 NE5       30.28S
WOLF POINT     SUNNY     63  38  39 E3        30.28S
MALTA          SUNNY     63  43  48 SW6       30.29S
PLENTYWOOD       N/A     59  48  67 CALM      30.28S
POPLAR           N/A     61  37  41 E7        30.28S
$$

MTZ028>42-056>058-251600-
SOUTHCENTRAL AND SOUTHEAST MONTANA

CITY           SKY/WX    TMP DP  RH WIND       PRES   REMARKS
BAKER          SUNNY     69  30  23 W15       30.29F
BILLINGS       SUNNY     60  42  51 SW9       30.33S
LIVINGSTON     SUNNY     57  42  57 VRB3      30.37F
MILES CITY     SUNNY     67  31  26 SW6       30.29S
BIG TIMBER     SUNNY     61  39  44 W8        30.38F
FORSYTH          N/A     63  36  36 CALM      30.30S
ROUNDUP          N/A     63  37  37 W2        30.22R
$$

REGIONAL REPORTS...DAKOTAS

CITY           SKY/WX    TMP DP  RH WIND       PRES   REMARKS
WILLISTON      CLOUDY    56  50  80 SW9       30.28F
MINOT          CLOUDY    59  46  62 W6        30.24F
DICKINSON      CLOUDY    58  33  39 NE13      30.27F
BEACH            N/A     66  32  28 W18G24    30.30S
CROSBY           N/A     59  50  72 NW7       30.27F
TIOGA          CLOUDY    55  55 100 W7        30.28S
WATFORD CITY     N/A     54  46  76 SE5       30.28S
BISMARCK       CLOUDY    52  43  71 S5        30.31S
GRAND FORKS    PTSUNNY   61  47  59 NW10      30.23S
FARGO          MOSUNNY   60  42  51 NW13      30.24S
BUFFALO SD       N/A     66  35  31 SW7       30.25F
RAPID CITY     SUNNY     64  34  32 S12       30.34F
$$

REGIONAL REPORTS...WYOMING/IDAHO/WASHINGTON

CITY           SKY/WX    TMP DP  RH WIND       PRES   REMARKS
GILLETTE       CLOUDY    62  38  40 S7        30.35S
SHERIDAN       MOSUNNY   63  41  44 CALM      30.34S
BUFFALO WY     SUNNY     63  38  39 CALM      30.37S
CODY           SUNNY     62  36  37 E3        30.40S
YELLOWSTONE LA   N/A     49  38  65 E3        30.50R
IDAHO FALLS    SUNNY     63  47  55 N7        30.29R
SALMON         SUNNY     57  43  58 CALM      30.29F
BOISE          SUNNY     72  42  34 SE12      30.14R
SPOKANE        MOSUNNY   67  44  43 NE8       30.14R
$$

REGIONAL REPORTS...ALBERTA

CITY           SKY/WX    TMP DP  RH WIND       PRES   REMARKS
EDMONTON       SUNNY     66  50  55 S9        30.21F
CALGARY        MOSUNNY   63  45  51 S7        30.25S
LETHBRIDGE     SUNNY     63  46  55 S7        30.26F
MEDICINE HAT   MOSUNNY   63  50  63 SW8       30.27S
CARDSTON         N/A     63  46  55 S2          N/A
$$

REGIONAL REPORTS...SASKATCHEWAN

CITY           SKY/WX    TMP DP  RH WIND       PRES   REMARKS
SWIFT CURRENT  SUNNY     57  50  77 N6        30.29R
REGINA         MOSUNNY   61  45  55 E6        30.28S
SASKATOON      SUNNY     61  46  59 SE9       30.30S
VAL MARIE        N/A     64  43  45 W2          N/A
ROCKGLEN         N/A     61  39  44 NW3         N/A
ASSINIBOIA       N/A     61  50  67 SE7         N/A
$$




USA.gov is the U.S. government's official web portal to all federal, state and local government web resources and services.